Location: B�hl
(48.6968°N, 8.1352°E)
Time: 03:21:56
(UTC+00:00)

CENTAUR R/B - Pass Details

Date: 08 March 2021
Orbit: 742 x 1446 km, 63.4° (Epoch: 31 March)

Event Time Altitude Azimuth Distance (km) Brightness Sun altitude
Rises 22:07:53 0° 270° (W) 3,608 5.8 -41.8°
Reaches altitude 10° 22:10:37 10° 281° (W) 2,767 5.2 -42.1°
Maximum altitude 22:16:22 31° 342° (NNW) 1,864 4.3 -42.5°
Drops below altitude 10° 22:23:03 10° 42° (NE) 3,228 5.4 -43.0°
Sets 22:26:31 0° 52° (NE) 4,304 6.0 -43.3°
